Location: Bletchingley
(51.2333°N, 0.1000°W)
Time: 15:25:52
(UTC+00:00)

Cosmos 2266 Rocket - Pass Details

Date: 20 January 2021
Orbit: 934 x 1008 km, 82.9° (Epoch: 05 March)

Event Time Altitude Azimuth Distance (km) Brightness Sun altitude
Rises 05:49:52 0° 355° (N) 3,636 6.9 -18.8°
Reaches altitude 10° 05:52:56 10° 10° (N) 2,676 6.3 -18.4°
Maximum altitude 05:57:45 24° 62° (ENE) 1,852 6.1 -17.6°
Drops below altitude 10° 06:02:31 10° 115° (ESE) 2,645 7.5 -16.9°
Sets 06:05:31 0° 129° (SE) 3,583 8.1 -16.4°
